Dewpoint
21 21 23 22 20 21 22 22 23 27 30 23 22 21 21 22 25 27 27 28 28 29 32 32 31 34 34
22 22 20 21 22 24 25 27 27 25 19 19 20 20 21 22 25 26 26 26 26 26 27 28 28 29 30
20 21 22 23 26 25 20 17 15 16 18 19 20 21 23 25 25 25 25 26 27 27 26 27 28 30 31
22 23 26 23 18 15 15 16 16 18 21 22 21 21 20 20 20 20 21 22 22 23 24 25 26 25 26
23 21 18 16 16 16 16 18 22 20 18 18 18 18 18 20 20 20 21 22 23 24 26 27 28 29 28
20 17 16 16 17 18 22 19 17 19 18 21 21 19 19 19 19 20 22 23 24 24 25 27 27 28 30
17 17 17 19 24 23 20 20 19 20 21 20 19 17 17 17 19 20 22 23 24 24 26 28 28 28 27
18 20 25 22 19 20 23 23 22 19 17 17 17 17 17 18 19 21 22 23 23 25 26 27 29 29 28
24 21 19 20 21 23 21 19 16 16 17 17 17 17 18 19 19 21 21 22 22 24 25 25 25 26 27
15 15 17 18 20 19 20 18 17 15 15 18 18 19 16 17 19 19 21 22 23 25 26 28 30 31 31
16 16 18 18 18 19 20 21 18 17 18 21 20 19 19 18 19 20 21 22 24 25 26 29 31 31 29
17 17 17 18 18 19 20 21 21 21 23 23 20 20 19 18 17 20 21 24 25 25 26 27 29 31 32
17 17 17 18 19 19 19 20 20 21 23 23 23 22 22 21 20 21 24 23 24 25 27 29 30 31 30
17 17 17 17 17 18 19 18 19 18 20 22 25 26 23 23 23 22 24 24 28 31 32 32 33 33 31
17 16 16 16 16 17 18 19 18 18 19 22 24 25 25 25 23 24 25 28 31 31 31 30 32 32 30
16 16 15 16 16 17 17 18 18 19 20 23 23 22 21 22 26 25 28 29 30 31 31 30 29 33 32
16 15 17 16 16 16 16 17 18 20 23 22 23 22 20 19 21 25 27 29 30 30 30 30 29 34 33
Wind_Speed
24 23 23 23 23 20 19 20 20 28 29 40 42 43 44 43 43 42 42 41 40 40 40 41 43 42 43
29 27 27 26 25 23 17 17 21 28 35 38 39 40 42 40 39 40 41 40 41 42 40 40 41 42 41
30 25 27 23 21 19 21 21 21 28 32 35 36 38 40 39 41 43 42 41 41 41 40 42 41 40 41
25 26 19 20 22 25 24 22 24 20 25 33 34 36 38 38 40 40 40 40 40 39 39 39 40 40 41
20 23 23 25 24 25 26 26 21 22 25 24 20 23 25 32 34 38 37 36 37 37 38 38 38 38 40
23 26 26 23 26 25 24 28 30 17 17 28 22 26 25 24 32 36 38 39 39 40 38 38 40 41 40
26 25 27 26 24 26 27 25 29 27 24 31 22 27 24 25 35 38 39 39 39 38 40 39 40 41 42
22 25 23 25 26 23 26 27 24 24 19 29 25 29 26 24 36 39 38 37 36 36 36 37 38 39 41
25 28 33 30 28 23 22 23 28 26 22 22 22 26 28 31 27 30 30 34 36 37 37 38 38 40 38
20 22 23 23 27 19 20 23 24 25 16 16 25 20 16 17 15 25 23 29 33 35 37 38 39 31 27
20 21 20 20 19 17 18 20 23 24 29 23 19 23 15 22 22 20 23 25 23 27 31 34 36 35 28
20 21 21 22 22 22 23 22 21 26 29 26 20 23 24 28 30 20 25 27 21 24 24 29 34 37 40
20 21 21 23 24 22 22 22 22 23 22 23 21 24 22 24 24 28 28 21 25 21 24 24 23 24 25
19 21 21 20 22 20 22 23 22 24 17 17 20 18 23 22 19 26 24 17 24 23 22 22 20 17 9
19 21 21 21 22 20 20 21 19 21 26 24 21 19 20 21 19 19 24 23 23 26 24 23 17 13 5
20 19 21 21 21 22 19 18 20 21 21 20 23 24 22 8 11 17 19 24 27 24 25 21 22 15 8
19 20 19 21 21 21 20 19 20 20 16 18 18 17 21 20 10 15 24 24 27 25 25 21 19 14 10
Wind_Direction
296 301 299 295 294 290 285 282 282 287 283 286 288 291 289 287 288 287 284 281 281 282 276 274 272 269 267
296 303 301 301 297 297 295 283 277 277 290 291 290 292 294 291 290 288 285 282 282 279 278 275 271 269 266
291 297 296 301 303 297 293 290 285 286 290 290 290 292 292 291 288 286 285 283 282 279 277 274 271 268 266
288 290 306 308 301 306 304 295 290 291 286 285 290 290 288 289 289 287 286 285 281 277 275 272 271 269 268
317 306 310 312 308 303 298 300 297 296 289 290 287 282 281 283 281 283 283 280 276 272 271 270 267 264 262
307 305 304 303 299 299 299 307 303 301 292 293 288 285 282 278 277 281 281 279 279 277 273 269 266 263 259
303 297 297 297 299 305 302 299 297 299 300 292 294 286 284 282 284 284 283 282 280 277 273 269 265 261 258
295 294 294 304 303 301 299 296 292 294 294 290 295 288 290 284 283 284 285 284 282 278 274 270 266 263 257
302 307 306 307 307 307 305 306 303 303 302 291 292 295 294 286 279 279 281 286 285 283 279 273 267 261 259
315 309 306 301 306 305 300 299 300 306 304 305 303 309 311 277 285 290 282 280 283 283 280 275 270 264 254
311 308 308 308 306 303 298 293 294 291 292 305 300 298 286 297 302 295 289 289 288 285 282 277 269 260 252
310 311 313 310 309 307 300 292 283 279 289 291 284 290 292 295 296 296 300 295 289 284 278 275 273 267 256
312 309 307 304 304 306 304 300 296 291 287 284 281 286 283 284 289 297 304 307 300 285 288 281 278 271 260
306 304 306 309 310 312 310 312 311 311 307 297 299 291 297 290 288 292 304 308 302 303 307 305 300 293 286
308 308 309 311 310 314 311 312 310 311 318 324 323 314 296 281 291 302 314 322 326 324 322 325 320 320 157
308 306 306 306 310 313 314 311 311 313 314 322 328 337 340 312 246 307 335 335 337 336 337 337 342 0 136
303 301 303 305 312 312 313 313 314 313 317 320 324 335 334 330 298 324 341 344 346 351 350 349 351 12 116